RADUGA 29 [-]

Last updated on Jan. 18, 2020, 4:38 a.m. UTC

1 22557U 93013A   20017.39369983 -.00000364  00000-0  00000+0 0  9990
2 22557  14.9464   4.0995 0005410  35.9854 323.3738  1.00363026 98201
UTC
Height (km)
Latitude
Longitude
Inclination
Orbital Period
UTC large
Height (km)
Speed (km/s)
/
Latitude / Longitude
Inclination (degrees)
Orbital Period (minutes)
Azimuth
Elevation
Range (km)
Doppler Factor
iOS Compass Heading
iOS Angle

Next 30 passes for location: Hong Kong

Rise time Rise Azimuth (degrees) Set time Set Azimuth (degrees) Duration Max altitude (degrees)

No matching passes for this satellites